Wetbulb
60.49 62.83 62.46 61.45 60.64 60.38 59.72 59.61 58.92 58.59 57.88 56.83 55.77 55.40 54.58 54.50 53.91 53.59 52.98 53.03 53.08 53.07 53.43 53.02 53.17 54.03 53.22 53.13 53.37 53.41 53.34 53.39 53.86 54.15 54.39 56.16 59.92 60.03 60.58 60.21 58.10 57.41 57.43
58.45 60.52 61.10 60.11 59.27 58.58 58.54 58.81 58.59 58.09 57.66 57.03 57.04 56.81 55.55 54.74 53.40 52.35 51.87 51.98 51.77 52.05 52.42 52.51 52.22 52.50 52.56 52.34 51.85 52.11 52.20 52.93 53.10 50.35 51.89 52.09 55.15 56.52 57.38 58.50 56.74 55.86 56.48
56.41 58.59 59.92 59.03 58.16 57.33 57.62 57.95 58.36 57.87 57.59 57.61 56.91 55.58 54.25 52.13 50.59 50.34 50.16 50.46 51.12 51.53 51.98 52.01 52.40 52.10 52.35 51.24 51.37 51.67 51.27 50.81 52.04 51.93 50.22 49.04 49.13 49.56 55.56 56.19 55.34 53.97 53.80
55.97 57.48 59.37 58.22 57.52 57.30 58.14 58.05 58.21 57.67 57.20 57.31 55.00 53.03 51.12 49.56 50.63 50.54 50.18 49.84 50.49 50.40 50.86 51.16 51.44 51.44 51.25 50.70 50.21 50.94 50.82 51.35 49.25 52.32 51.48 51.21 49.39 47.41 47.01 51.87 51.55 51.54 50.52
55.28 55.55 57.48 58.90 58.00 57.61 57.29 57.62 57.31 57.16 56.83 55.87 55.07 53.31 53.04 52.64 50.64 49.86 48.80 49.32 49.53 49.73 50.12 50.55 50.87 50.61 50.10 49.51 49.53 49.13 49.33 49.44 49.02 48.33 48.30 48.87 49.82 47.79 45.12 42.92 46.65 47.42 48.77
54.61 55.60 56.96 59.54 57.94 57.78 57.30 56.73 55.91 55.48 56.13 55.44 55.24 54.45 54.04 50.94 49.18 48.98 48.32 48.45 48.78 48.82 48.94 49.23 49.24 49.36 48.55 48.14 48.32 48.21 47.74 47.65 47.45 47.41 46.04 45.07 44.09 42.03 41.01 40.27 42.02 42.68 46.55
55.64 55.51 55.50 58.29 57.49 56.66 56.17 55.50 54.65 53.69 54.70 54.48 54.38 54.61 53.63 51.17 49.77 49.10 48.72 48.03 47.50 47.46 47.49 48.27 47.73 47.19 46.98 46.56 46.56 46.17 45.72 45.55 44.99 44.60 43.83 43.04 41.27 42.41 42.30 41.21 40.52 40.25 44.20
55.08 55.30 56.00 57.02 57.30 56.29 55.62 54.35 53.34 52.91 53.51 53.68 53.68 53.72 52.44 50.48 50.32 49.94 48.83 48.32 47.74 47.02 47.30 46.74 46.36 45.83 45.51 45.24 44.63 44.13 43.98 44.33 43.69 42.91 42.71 41.75 40.68 40.52 39.58 37.75 36.06 36.75 41.05
54.00 54.30 55.25 55.80 56.16 55.49 54.80 52.99 52.27 52.38 51.93 52.51 52.57 51.42 50.62 50.20 49.64 49.34 48.45 46.97 46.69 45.73 46.02 45.56 44.71 43.83 43.62 43.71 42.58 41.95 41.90 42.39 42.26 41.89 41.77 40.83 39.93 40.03 39.40 37.59 36.72 34.49 33.11
52.63 53.37 53.56 54.53 55.32 55.19 54.26 52.83 51.63 50.88 49.91 49.84 49.66 48.63 48.90 48.74 48.47 47.40 45.71 45.43 44.96 44.65 44.14 43.47 43.12 42.16 41.98 41.73 41.50 40.43 40.32 40.08 39.90 40.11 39.47 39.49 39.60 39.60 39.05 36.97 35.88 35.55 33.08
50.86 52.44 53.95 54.07 54.36 54.01 52.22 50.54 49.18 48.63 48.16 48.39 47.57 47.03 46.59 46.78 46.41 44.92 43.90 43.13 43.18 43.59 42.13 40.93 40.40 40.68 40.37 40.19 39.69 38.89 38.26 38.26 38.37 38.49 37.64 37.34 38.41 38.24 38.19 38.80 38.16 37.26 36.01
51.18 52.31 53.68 54.34 53.14 52.51 51.97 49.66 48.61 48.31 47.43 46.95 46.55 45.99 45.70 44.98 43.53 42.16 41.53 41.59 40.41 41.62 40.59 39.69 38.53 38.39 38.41 38.63 37.65 37.13 37.51 37.06 36.50 36.77 36.51 35.94 37.29 36.99 36.65 36.24 35.70 35.72 36.01
50.03 51.10 52.19 52.28 52.64 51.78 50.72 49.09 47.62 47.50 46.41 45.82 45.26 44.89 43.75 42.25 40.09 39.20 38.93 38.94 39.24 38.96 38.44 37.60 36.63 36.54 36.55 36.96 37.26 36.93 36.10 35.81 35.74 35.64 34.50 34.19 34.97 34.37 34.89 34.32 33.99 34.14 34.82
49.05 49.92 50.62 51.02 51.26 50.33 49.31 47.91 46.92 47.24 46.08 44.74 44.00 43.23 41.33 39.65 38.70 37.41 37.64 37.76 37.97 37.42 36.81 36.62 35.95 35.80 36.00 36.02 36.10 36.16 35.14 34.55 34.19 34.07 32.11 31.14 30.25 30.17 31.98 32.50 32.29 32.69 32.72
47.76 48.72 49.06 49.62 48.48 48.15 47.43 47.07 45.90 45.07 45.31 43.97 41.98 40.79 39.77 38.37 37.11 35.93 36.50 37.21 37.31 36.69 35.86 35.25 34.95 35.33 35.34 34.62 35.29 35.84 34.69 33.27 32.42 32.25 29.72 27.49 26.58 25.88 25.76 27.98 28.03 30.80 30.37
47.59 48.82 48.52 47.97 46.91 45.42 44.95 44.37 44.10 43.14 43.23 40.98 39.44 38.41 37.45 35.86 35.09 35.02 34.45 34.91 35.20 35.22 34.77 34.35 34.13 32.82 31.98 28.45 30.17 34.29 33.46 32.95 32.45 30.92 30.11 28.55 26.64 24.31 23.71 24.04 23.96 23.65 25.75
47.52 48.03 47.95 48.17 45.81 44.23 43.51 42.83 42.21 42.10 40.20 38.14 37.76 37.10 35.11 34.42 33.59 32.70 32.28 32.59 33.47 34.92 33.39 33.23 32.63 30.15 28.97 28.23 29.92 32.56 33.01 32.02 31.50 30.80 29.70 27.84 27.50 27.87 26.77 24.28 24.26 22.90 22.83
46.71 48.14 49.22 48.86 45.40 43.53 43.44 42.28 41.37 38.88 37.22 36.27 34.31 34.10 33.44 32.46 32.03 31.52 31.21 32.71 33.81 33.43 33.84 33.90 32.24 29.83 28.00 28.24 29.41 30.94 31.27 30.06 29.08 28.49 27.69 26.36 24.54 23.29 26.78 25.42 23.12 21.48 19.80
46.13 46.66 48.12 49.55 46.63 42.80 41.16 38.96 35.96 35.09 33.25 31.72 31.78 31.87 32.02 30.60 30.39 29.91 30.70 31.69 31.16 30.64 30.71 33.31 30.82 28.02 27.07 27.42 28.44 30.23 29.32 27.71 26.65 26.45 25.76 24.27 21.77 20.72 22.88 22.64 20.98 20.60 20.81
45.61 45.21 45.39 45.62 45.45 41.61 38.68 33.29 31.87 32.05 31.87 31.87 31.83 31.86 31.83 30.57 29.30 29.78 30.54 31.15 31.14 30.77 30.76 29.61 30.37 27.95 26.60 26.56 27.58 30.41 29.59 27.43 26.22 25.01 23.03 21.37 20.80 20.42 21.27 22.35 21.20 17.76 17.60
43.77 44.52 44.13 45.22 39.42 39.21 34.82 32.60 32.05 32.05 32.23 31.87 31.87 31.66 31.32 29.57 29.43 29.65 30.25 30.16 30.28 30.36 29.46 28.47 28.44 27.53 26.79 26.00 24.91 27.04 30.76 29.01 27.84 26.66 24.38 21.84 20.05 19.84 19.89 19.21 18.08 17.31 21.60
42.87 43.37 40.96 40.64 40.22 38.73 34.35 32.49 32.04 31.87 31.87 31.87 31.36 29.97 29.04 28.92 29.28 28.90 29.04 29.50 29.82 28.38 27.80 27.02 27.04 27.50 26.47 24.62 24.33 25.50 26.82 27.97 28.02 25.36 23.12 20.50 19.13 18.78 18.23 18.19 17.68 18.59 22.35
42.50 42.63 40.79 38.03 38.77 38.48 35.52 32.83 31.76 32.00 31.74 30.51 28.38 28.32 28.42 28.53 28.44 27.76 28.42 28.49 28.94 27.97 26.95 26.38 25.62 25.50 25.71 24.73 23.02 22.94 23.79 24.93 26.30 24.76 21.31 18.58 17.61 18.10 17.95 17.38 18.88 21.29 22.69
42.00 41.96 39.39 36.37 35.25 35.96 34.71 32.31 32.00 32.12 31.04 29.06 28.08 27.80 27.16 27.06 27.22 27.80 28.22 27.58 27.97 27.95 27.73 27.51 26.60 25.81 25.28 24.15 24.22 23.31 23.75 21.60 20.17 17.80 19.07 17.37 16.83 15.91 18.45 21.04 21.00 20.93 20.79
39.85 40.50 38.12 35.62 33.82 33.06 31.90 31.76 31.67 31.39 29.38 28.97 28.46 27.59 27.04 26.58 26.46 27.81 28.97 28.93 30.70 30.19 28.97 29.61 28.85 26.85 25.10 25.87 25.81 24.65 24.17 24.15 21.97 18.76 18.83 20.70 21.24 21.27 21.25 20.22 20.09 21.77 22.09
39.34 38.87 36.89 34.68 31.82 31.51 31.01 31.16 31.48 32.12 30.94 29.30 28.36 27.86 27.53 27.04 27.36 27.74 26.76 27.66 27.10 26.91 28.34 29.02 31.10 30.19 28.67 25.68 24.24 22.98 21.90 19.90 18.82 21.02 20.89 20.96 21.82 21.31 21.27 20.81 20.52 20.85 19.07
MSLP
1003.55 1004.98 1006.77 1008.20 1009.11 1009.94 1011.03 1011.96 1012.92 1013.66 1014.21 1014.62 1014.87 1015.36 1015.88 1016.74 1017.14 1017.65 1018.06 1018.15 1018.26 1018.24 1017.93 1017.87 1018.12 1018.07 1018.23 1018.45 1018.44 1018.17 1017.73 1017.40 1017.53 1016.51 1015.88 1015.30 1015.77 1015.97 1016.08 1016.30 1017.20 1017.56 1017.48
1002.56 1003.92 1006.09 1007.86 1008.99 1009.88 1010.89 1011.55 1012.36 1013.20 1013.65 1013.95 1014.20 1014.74 1015.66 1016.52 1017.02 1017.80 1018.39 1018.47 1018.54 1018.49 1018.29 1018.21 1018.41 1018.50 1018.49 1018.83 1018.87 1018.66 1017.96 1017.58 1017.82 1017.42 1016.49 1015.26 1015.43 1015.93 1016.22 1016.54 1017.25 1017.91 1017.75
1002.07 1003.28 1005.31 1007.42 1008.90 1009.75 1010.59 1011.15 1011.77 1012.61 1013.03 1013.42 1014.06 1014.83 1015.91 1017.02 1017.52 1017.97 1018.31 1018.60 1018.80 1018.77 1018.64 1018.63 1018.67 1018.76 1018.79 1019.05 1019.12 1018.94 1018.70 1017.98 1018.01 1018.22 1017.80 1016.74 1016.04 1016.64 1015.90 1016.60 1017.24 1017.89 1018.01
1001.73 1002.66 1004.13 1006.77 1008.62 1009.96 1010.70 1011.02 1011.58 1012.32 1012.76 1013.17 1014.04 1014.62 1015.25 1015.98 1016.53 1017.30 1018.16 1018.72 1018.97 1019.07 1019.14 1019.08 1019.05 1019.03 1019.05 1019.17 1019.28 1019.35 1019.11 1018.75 1018.52 1018.33 1018.55 1018.75 1018.75 1017.87 1017.24 1017.07 1017.81 1018.37 1018.44
1001.76 1002.07 1002.81 1005.24 1007.64 1009.47 1010.71 1011.26 1011.72 1012.25 1012.86 1013.53 1013.66 1014.36 1014.51 1014.99 1016.39 1017.40 1018.31 1018.54 1018.92 1019.16 1019.23 1019.31 1019.39 1019.34 1019.49 1019.85 1019.73 1019.61 1019.55 1019.57 1019.40 1019.36 1019.27 1019.22 1019.00 1019.74 1019.63 1018.98 1018.41 1019.14 1019.02
1001.76 1002.03 1002.58 1004.47 1006.80 1008.66 1010.09 1011.39 1011.60 1012.01 1012.44 1013.38 1013.50 1013.72 1013.89 1015.05 1016.05 1017.11 1017.85 1018.14 1018.65 1019.16 1019.56 1019.63 1019.68 1019.73 1019.90 1020.10 1020.21 1020.36 1020.43 1020.22 1020.22 1020.27 1020.53 1020.54 1020.75 1021.11 1021.15 1020.78 1020.03 1019.63 1018.86
1002.99 1002.91 1002.82 1004.17 1006.43 1008.15 1009.70 1011.18 1011.95 1012.41 1012.72 1013.23 1013.43 1013.65 1013.97 1015.11 1015.73 1016.64 1017.38 1017.97 1018.41 1019.01 1019.53 1019.76 1020.05 1020.22 1020.49 1020.58 1020.51 1020.73 1020.92 1021.14 1021.08 1021.26 1021.36 1021.80 1022.19 1022.29 1021.95 1021.61 1021.21 1020.56 1019.61
1004.69 1004.69 1004.71 1004.90 1006.18 1008.20 1009.75 1011.18 1012.15 1012.27 1012.86 1013.42 1013.50 1013.77 1014.26 1015.15 1015.64 1016.27 1017.24 1017.92 1018.22 1018.93 1019.66 1020.07 1020.34 1020.83 1021.10 1021.17 1021.01 1021.05 1021.31 1021.40 1021.70 1022.05 1022.25 1022.27 1022.74 1023.16 1022.76 1022.63 1022.64 1021.75 1020.19
1005.49 1005.81 1005.84 1005.98 1006.80 1008.11 1009.59 1011.16 1012.19 1012.48 1013.09 1013.65 1013.93 1014.27 1014.69 1014.97 1015.81 1016.61 1017.49 1018.47 1018.83 1019.39 1019.76 1020.21 1020.77 1021.15 1021.65 1021.68 1021.86 1021.59 1021.63 1021.81 1022.06 1022.40 1022.66 1022.54 1023.01 1023.32 1023.19 1023.61 1023.70 1023.09 1021.92
1005.38 1005.96 1006.55 1006.55 1007.02 1008.03 1009.45 1011.03 1012.02 1012.56 1013.36 1014.02 1014.38 1014.68 1015.17 1015.62 1016.46 1017.33 1017.79 1018.79 1019.24 1019.68 1020.14 1020.49 1020.65 1021.28 1021.93 1022.05 1022.22 1022.17 1022.23 1022.26 1022.46 1022.67 1022.91 1023.01 1023.28 1023.19 1023.21 1024.12 1024.04 1023.81 1023.76
1005.90 1005.64 1005.82 1006.95 1007.50 1008.29 1009.40 1010.92 1011.88 1012.51 1013.41 1014.15 1014.69 1015.04 1015.44 1016.04 1016.92 1017.80 1018.47 1019.31 1019.71 1019.94 1020.29 1020.79 1021.09 1021.65 1021.89 1022.41 1022.83 1022.93 1022.82 1022.65 1022.92 1023.00 1023.48 1023.66 1023.75 1023.78 1023.47 1023.64 1023.75 1023.67 1023.54
1006.56 1006.44 1006.09 1006.47 1007.71 1008.74 1009.65 1010.68 1011.72 1012.34 1013.15 1014.17 1014.65 1015.01 1015.67 1016.51 1017.36 1018.06 1018.67 1019.68 1020.46 1020.37 1020.40 1020.77 1021.44 1022.22 1022.53 1022.77 1023.05 1023.09 1022.85 1022.73 1022.87 1023.27 1023.49 1023.70 1023.41 1023.73 1024.01 1023.52 1024.39 1023.70 1023.51
1006.67 1007.01 1006.95 1007.00 1007.53 1008.63 1009.78 1010.96 1011.95 1012.13 1013.02 1013.99 1014.45 1014.99 1015.65 1016.46 1017.71 1018.52 1019.34 1020.07 1020.65 1020.93 1021.09 1021.10 1022.00 1022.65 1023.07 1023.48 1023.51 1023.69 1023.24 1023.15 1023.79 1023.97 1024.00 1024.20 1024.13 1024.32 1024.44 1024.39 1024.16 1024.06 1023.40
1006.61 1007.07 1007.37 1007.73 1007.95 1008.70 1009.84 1010.88 1011.79 1012.59 1013.12 1013.77 1014.46 1014.61 1015.51 1016.78 1017.56 1018.93 1019.66 1020.28 1020.82 1021.33 1021.27 1021.63 1022.37 1022.86 1023.31 1023.91 1024.06 1023.92 1023.76 1023.93 1024.66 1024.72 1025.31 1025.67 1025.80 1025.56 1025.34 1025.18 1025.23 1024.57 1023.77
1006.00 1006.85 1007.78 1008.20 1008.72 1009.04 1010.02 1010.96 1011.86 1012.65 1013.26 1013.90 1014.76 1015.53 1016.03 1017.04 1018.09 1019.16 1020.06 1020.49 1021.11 1021.47 1021.48 1022.01 1022.79 1023.51 1023.47 1024.39 1024.16 1024.01 1024.28 1024.51 1024.62 1025.24 1026.17 1027.28 1027.64 1027.90 1027.39 1026.75 1026.88 1025.51 1024.78
1005.94 1006.71 1007.80 1008.46 1008.95 1009.61 1010.22 1010.85 1011.79 1012.65 1013.40 1014.32 1015.36 1016.33 1016.97 1017.21 1018.68 1019.55 1020.27 1021.17 1021.52 1022.18 1022.01 1022.21 1023.32 1024.13 1024.54 1025.53 1024.73 1024.06 1024.43 1024.52 1024.74 1025.44 1026.24 1026.85 1027.73 1028.80 1028.55 1027.94 1028.36 1028.28 1026.97
1006.60 1007.05 1007.38 1008.21 1009.06 1009.39 1010.05 1010.86 1011.61 1012.55 1013.62 1014.82 1015.62 1016.62 1017.33 1017.60 1019.19 1020.41 1020.99 1021.51 1022.00 1022.15 1022.04 1022.90 1023.96 1024.81 1025.72 1025.99 1025.09 1024.77 1024.75 1025.04 1025.51 1025.74 1026.24 1026.72 1027.35 1027.90 1027.98 1028.18 1028.39 1028.85 1028.70
1007.61 1007.57 1007.58 1008.20 1009.36 1009.87 1010.27 1011.02 1011.80 1012.72 1013.86 1015.00 1015.99 1017.07 1018.11 1018.33 1019.56 1020.55 1021.25 1021.77 1022.10 1022.59 1022.86 1023.89 1024.43 1025.46 1026.33 1026.14 1025.93 1025.69 1025.77 1026.34 1026.64 1026.93 1027.52 1027.59 1028.74 1029.56 1027.59 1028.30 1028.85 1029.44 1029.89
1008.68 1008.61 1008.79 1008.91 1009.29 1009.84 1010.51 1011.54 1012.44 1013.41 1014.34 1015.23 1016.33 1017.16 1017.81 1018.52 1019.49 1020.23 1021.10 1021.75 1022.50 1023.20 1024.06 1024.39 1024.86 1025.82 1026.61 1026.66 1026.58 1026.04 1026.48 1027.23 1027.41 1027.97 1028.47 1028.75 1029.68 1029.96 1029.17 1029.34 1029.41 1029.89 1030.10
1009.10 1009.04 1009.34 1009.31 1009.62 1010.25 1011.08 1012.02 1012.91 1013.69 1014.47 1015.45 1016.22 1017.13 1017.64 1018.43 1019.50 1020.51 1021.27 1022.12 1023.09 1023.88 1024.47 1025.07 1025.42 1025.87 1026.68 1027.08 1026.76 1026.29 1026.71 1027.25 1027.66 1028.51 1029.43 1030.15 1030.19 1030.16 1029.97 1030.05 1029.79 1030.41 1030.70
1009.79 1009.52 1009.59 1009.40 1009.96 1010.64 1011.67 1012.65 1013.28 1014.13 1015.10 1015.89 1016.80 1017.49 1018.27 1019.22 1020.21 1020.94 1021.92 1022.71 1023.54 1024.10 1024.73 1025.47 1025.78 1026.18 1026.86 1027.27 1027.33 1026.88 1026.64 1026.98 1027.14 1028.12 1029.38 1030.40 1030.66 1030.79 1030.88 1030.89 1030.75 1031.18 1030.66
1010.26 1009.93 1010.01 1010.37 1010.68 1011.20 1012.12 1012.99 1013.91 1014.54 1015.40 1016.22 1017.15 1018.04 1019.18 1020.16 1020.99 1021.53 1022.23 1022.87 1023.54 1024.02 1025.01 1025.51 1025.96 1026.38 1027.07 1027.48 1027.73 1027.75 1027.25 1027.20 1027.40 1028.25 1029.87 1030.74 1031.08 1031.39 1031.95 1031.50 1031.19 1031.23 1030.67
1010.29 1010.28 1010.68 1011.07 1011.42 1011.85 1012.33 1013.13 1014.10 1014.89 1015.79 1016.52 1017.55 1018.46 1019.68 1020.70 1021.26 1021.71 1022.29 1023.02 1023.62 1024.09 1024.90 1025.32 1025.75 1026.24 1027.09 1027.75 1028.22 1028.51 1028.28 1028.28 1028.13 1029.09 1029.97 1030.73 1031.37 1031.80 1032.61 1032.07 1031.27 1031.00 1030.96
1010.50 1010.57 1011.19 1011.77 1012.26 1012.77 1013.10 1013.38 1014.25 1015.08 1016.18 1016.84 1017.82 1018.87 1019.44 1020.29 1021.17 1021.83 1022.44 1023.00 1023.20 1023.86 1024.03 1024.38 1025.20 1026.11 1026.66 1027.56 1028.27 1028.84 1029.00 1029.61 1030.31 1030.76 1030.65 1031.07 1031.26 1032.18 1032.58 1031.66 1031.50 1031.78 1031.77
1011.01 1010.90 1011.56 1012.33 1012.93 1013.47 1014.07 1014.39 1014.55 1015.46 1016.46 1017.16 1017.96 1019.11 1019.83 1020.54 1021.14 1021.51 1021.91 1022.45 1022.97 1023.19 1023.27 1023.77 1024.38 1025.46 1026.41 1026.98 1027.74 1028.05 1028.44 1028.95 1029.96 1030.98 1030.78 1030.92 1030.49 1031.34 1031.78 1031.78 1031.71 1031.64 1031.50
1011.13 1011.32 1012.01 1012.79 1013.52 1013.89 1014.44 1015.06 1015.17 1015.39 1016.14 1017.35 1018.30 1018.95 1019.52 1020.47 1020.88 1021.33 1022.11 1022.78 1023.33 1023.53 1023.70 1023.74 1024.16 1025.41 1026.11 1027.08 1027.96 1028.57 1029.11 1030.03 1030.26 1029.95 1030.36 1030.45 1030.21 1030.86 1031.19 1031.20 1031.43 1031.72 1031.88
Wind_Speed
19 19 18 17 16 16 16 16 15 14 11 9 9 8 7 6 5 5 5 5 5 5 4 4 4 3 5 5 4 3 1 2 6 6 5 4 4 1 2 5 8 9 7
21 20 21 19 18 17 16 17 16 16 12 9 8 7 7 6 6 5 5 5 5 5 5 4 4 3 4 4 4 4 3 3 6 5 5 2 5 3 2 3 3 4 3
21 21 21 20 18 18 18 17 17 17 14 12 8 7 7 6 5 7 6 5 5 5 5 5 4 5 3 4 5 5 6 4 4 6 4 3 2 5 8 5 8 6 5
20 20 22 21 18 17 16 17 17 17 15 14 12 14 10 9 7 7 6 6 6 6 5 5 5 5 5 5 5 5 5 5 4 2 3 3 4 4 4 4 6 9 9
16 19 20 23 20 17 16 15 16 16 15 14 14 12 12 7 8 7 10 8 7 6 6 6 5 6 5 6 6 6 6 5 4 4 4 4 3 4 2 6 6 7 7
11 15 17 20 17 16 16 15 16 16 16 15 15 15 13 12 10 10 9 8 7 6 6 6 6 6 6 5 5 5 7 6 5 4 5 5 4 3 2 3 6 6 4
13 13 11 16 15 16 16 14 15 16 15 16 15 15 13 13 13 12 8 9 8 6 7 6 5 5 5 5 5 5 6 7 6 6 4 4 4 2 2 4 5 5 6
12 10 11 8 11 14 16 15 15 17 15 15 15 13 14 10 9 11 8 7 7 7 8 7 6 5 5 5 4 4 4 5 5 6 4 4 4 4 4 4 4 5 4
12 12 7 8 9 13 15 14 15 17 14 14 12 12 12 12 10 10 9 7 8 8 8 8 7 6 4 5 4 4 5 4 4 4 3 4 4 3 4 4 3 3 4
11 6 7 8 9 12 13 15 15 15 13 11 10 11 12 11 10 10 10 9 9 9 9 8 8 6 5 4 4 4 4 5 4 5 5 5 3 3 4 3 3 3 3
19 19 5 7 9 11 12 12 12 14 13 11 10 10 11 11 11 10 9 9 9 10 9 8 7 6 5 5 5 5 5 6 6 7 6 5 5 4 4 2 2 1 0
16 18 14 8 8 11 13 16 16 17 15 13 12 12 12 11 10 10 11 10 9 7 9 8 8 6 5 5 5 4 6 7 7 6 6 6 5 5 5 4 4 3 3
15 15 15 13 8 10 13 14 15 16 16 16 15 13 13 13 11 11 10 10 9 8 9 9 8 6 6 6 5 5 7 8 7 7 9 8 7 7 5 5 5 5 4
13 15 13 13 11 8 12 14 14 15 16 16 15 15 15 13 12 11 11 11 10 9 9 8 8 7 6 5 5 6 8 8 7 10 11 10 10 10 9 7 6 5 4
14 9 13 12 10 7 8 9 11 12 14 16 13 13 13 14 13 12 11 9 8 8 9 9 8 6 7 4 5 6 7 8 9 10 11 11 13 16 17 9 10 9 6
17 11 10 11 9 7 7 9 11 13 12 14 15 12 13 14 13 12 11 9 9 8 8 9 8 6 5 6 11 3 7 7 8 9 10 10 12 12 14 17 18 16 10
13 12 12 10 8 7 8 10 12 12 11 13 13 14 13 15 13 12 11 11 9 8 9 9 9 9 7 7 10 9 8 8 8 8 8 8 6 4 8 10 13 16 17
14 13 11 8 6 3 4 5 9 11 12 11 13 12 12 14 12 11 10 9 7 6 7 6 10 10 8 10 10 10 11 10 10 10 9 10 8 8 6 8 9 10 11
10 10 11 11 8 6 8 8 9 10 13 14 14 14 14 14 14 13 11 9 10 10 6 3 10 11 9 9 7 10 11 10 11 11 10 10 9 9 10 7 8 8 8
7 9 11 11 7 6 10 12 12 13 14 14 14 13 13 14 13 13 11 10 9 9 9 9 8 12 10 8 5 9 8 10 9 11 12 14 10 11 9 5 7 7 6
9 8 9 10 5 9 10 10 11 11 10 12 12 12 12 13 13 12 10 11 10 10 9 10 10 10 10 7 3 1 7 6 8 8 8 7 12 12 12 11 9 5 3
8 8 6 5 3 9 10 8 9 9 12 13 13 13 13 10 10 13 11 11 10 11 11 11 9 8 9 9 6 7 10 6 7 9 8 9 13 12 10 8 10 5 4
6 6 7 6 3 5 9 10 10 14 14 14 15 15 13 12 12 12 11 10 9 10 9 8 8 8 7 7 11 9 10 8 8 8 14 13 10 8 8 10 9 6 4
7 6 5 4 3 3 6 10 13 13 13 14 15 13 14 14 12 9 10 9 9 9 9 9 8 7 8 9 8 7 8 11 10 10 7 7 9 7 2 3 5 5 4
4 4 3 4 5 6 8 10 13 14 14 14 14 12 10 11 11 9 9 9 8 8 9 8 8 9 8 8 10 10 8 8 8 8 6 5 5 4 3 4 3 3 3
3 3 4 5 5 7 8 9 11 14 15 14 11 10 10 10 9 9 8 13 12 11 10 9 8 4 13 17 14 10 11 13 11 5 4 4 4 3 3 3 3 3 3
Wind_Direction
214 197 195 191 195 186 184 180 174 167 167 165 165 160 160 151 133 118 116 106 95 85 81 89 88 73 53 45 19 337 329 19 352 276 347 256 129 98 33 61 32 10 29
217 206 189 196 200 194 193 186 180 175 183 178 175 171 151 160 138 124 110 99 98 93 95 95 85 43 100 60 41 26 330 55 29 356 273 261 163 121 127 104 140 73 346
231 215 191 198 195 203 198 195 187 180 188 177 156 141 129 134 159 153 146 117 109 99 104 99 95 98 73 76 50 28 31 24 58 32 355 308 343 336 157 156 79 13 332
243 234 192 195 202 212 203 203 193 185 188 175 166 166 170 174 177 163 133 131 124 113 104 98 100 87 84 76 69 50 36 348 38 127 45 26 10 340 309 22 354 10 340
259 255 226 187 194 199 208 209 201 193 186 180 178 175 190 162 148 149 157 143 135 127 116 110 101 93 86 73 64 58 47 54 25 32 1 32 56 64 292 288 352 330 344
264 252 248 173 187 197 202 207 207 204 187 189 192 188 185 160 167 165 168 161 147 137 121 107 93 90 92 74 69 66 50 53 47 57 37 30 5 41 335 302 308 322 338
352 322 271 168 188 198 199 204 214 216 198 197 193 190 175 177 175 170 177 161 149 143 132 120 115 99 91 81 77 76 65 48 50 33 67 55 59 13 318 301 336 314 305
6 343 320 297 194 204 204 205 218 219 200 202 193 186 174 180 176 179 158 168 149 132 135 123 109 99 96 88 91 93 82 77 72 63 40 91 62 19 28 17 341 318 310
8 343 310 259 227 205 206 205 221 222 203 203 192 180 174 174 169 156 155 153 135 134 132 126 116 99 91 95 92 79 89 87 82 85 73 70 70 63 37 30 359 5 333
323 335 303 269 222 213 201 199 213 222 198 194 185 178 176 165 155 154 152 155 139 136 137 134 119 115 107 102 113 109 83 95 80 72 53 54 30 75 78 60 16 10 328
331 320 295 247 232 210 185 187 200 208 194 187 179 169 169 160 155 154 145 142 145 144 134 128 115 119 118 116 96 102 104 89 85 75 63 62 41 23 32 34 15 257 331
326 320 327 292 225 220 209 194 201 206 195 188 181 168 160 154 150 147 141 143 150 138 123 126 116 126 125 130 136 120 103 98 85 82 80 49 48 34 29 29 334 3 308
323 324 317 305 260 226 216 213 209 203 188 189 178 167 157 150 146 133 149 139 150 135 134 123 130 140 129 140 127 128 100 90 83 80 70 52 41 39 29 19 360 345 351
317 327 318 308 289 245 236 221 209 206 192 190 184 167 157 145 145 145 150 148 148 145 135 126 124 133 141 128 135 118 103 99 92 77 64 54 47 39 9 31 360 8 9
306 317 320 313 294 262 234 222 203 198 198 188 176 159 143 146 138 143 149 144 139 130 128 126 132 142 138 83 130 120 118 119 105 92 87 70 68 58 50 35 14 6 36
317 326 308 301 292 279 230 209 203 199 189 171 168 160 151 133 143 143 133 140 138 137 135 124 131 134 96 35 17 100 121 115 108 111 109 115 109 78 67 67 56 41 18
335 316 314 285 268 240 205 214 196 187 174 165 165 158 147 133 135 130 139 144 152 147 122 134 130 114 114 72 53 51 95 88 77 77 95 96 88 85 104 87 72 59 50
325 323 323 298 257 227 218 206 185 163 164 157 140 135 139 131 132 138 136 137 129 103 92 127 128 121 115 112 95 97 98 98 95 91 81 74 63 20 47 75 70 64 50
322 318 310 301 257 194 154 129 144 149 140 140 143 151 145 137 142 143 144 134 121 115 127 121 130 129 128 130 141 115 108 103 90 77 68 80 73 50 45 69 76 69 62
324 327 309 288 279 190 155 147 156 154 157 159 150 144 146 141 135 138 134 125 132 139 149 124 121 131 134 147 126 124 128 123 113 106 89 70 72 68 52 69 89 74 54
320 336 338 308 167 162 145 161 156 164 145 137 138 136 128 127 129 131 135 137 142 138 138 140 137 138 140 138 107 60 130 137 121 111 96 79 71 66 67 70 65 49 25
323 353 14 10 142 158 152 152 158 136 137 135 134 123 120 123 137 135 135 143 144 143 152 148 144 134 133 128 109 71 93 113 116 103 98 91 80 71 63 69 71 45 54
327 13 16 22 27 151 152 144 135 140 140 135 129 127 128 139 137 137 144 147 155 156 157 155 148 142 136 124 117 114 101 102 107 88 108 105 95 96 77 59 57 46 50
338 18 22 48 76 111 134 130 140 141 141 134 132 136 139 138 143 153 157 161 168 169 170 160 158 153 147 146 148 138 117 99 96 115 113 99 99 75 112 106 76 61 40
305 12 67 90 101 109 129 141 137 137 136 137 139 138 135 140 150 158 164 169 174 176 171 167 158 162 163 163 157 151 149 142 123 128 137 150 124 126 127 105 72 57 67
348 32 91 125 126 134 139 148 147 146 143 143 143 141 143 151 156 148 123 65 89 70 68 80 136 133 136 138 142 121 112 123 148 149 146 147 133 132 136 118 110 90 65